Other Surface Observations
Issued by NWS Charleston, SC

Home | Current Version | Previous Version | Text Only | Print | Product List | Glossary On
Versions: 1 2 3 4 5 6 7 8 9 10 11 12 13 14 15 16 17 18 19 20 21 22 23 24 25 26 27 28 29 30 31 32 33 34 35 36 37 38 39 40 41 42 43 44 45 46 47 48 49 50
000
SXUS52 KCHS 252225
OSOCHS

MARINE OBSERVATIONS
NATIONAL WEATHER SERVICE CHARLESTON SC
600 PM EDT SAT OCT 25 2014

...DOWNTOWN CHARLESTON AND HARBOR...

CITY           SKY/WX    TMP DP  RH WIND       PRES   REMARKS
WATERFRONT PRK   N/A     72 N/A N/A S8          N/A
FORT JOHNSON   NOT AVBL

...LAKE MOULTRIE...

CITY           SKY/WX    TMP DP  RH WIND       PRES   REMARKS
PINOPOLIS      NOT AVBL

...LAKE AND SUPPLEMENTAL COASTAL OBSERVATIONS...

STATION/POSITION TIME  TEMP    WIND        PRES    WAVE   SWELL
                       AIR SEA DIR/SP/G            HT/PER HT/PER/DIR
                 (UTC) (F)     (DEG/KT/KT) (MB)    (FT/S) (FT/S/D)
FORT PULASKI     2200   73     100/  3/  3 1014.6S
SAPELO ISLAND    NOT AVBL
UPR LAKE MARION  NOT AVBL
WINYAH BAY       2200   73     280/  2     1013.0S
LAKE MURRAY      2100   75     190/  4/  6 1013.9S
ACE BASIN NERRS  2200   74     300/  1     1014.0S


...C-MAN AND BUOY OBSERVATIONS...

STATION/POSITION TIME  TEMP    WIND        PRES    WAVE   SWELL
                       AIR SEA DIR/SP/G            HT/PER HT/PER/DIR
                 (UTC) (F)     (DEG/KT/KT) (MB)    (FT/S) (FT/S/D)
BUOY 41004       2200   70 77  270/  2/  4 1013.8F   2/10   2/10
BUOY 41008       2200   71 75   10/  4/  4 1014.8F   2/ 9   2/110/ 9
FOLLY BEACH CMAN 2200   69     190/  7/  8 1014.5S
CAPERS NS BUOY   NOT AVBL
FRIPP NS BUOY    NOT AVBL
5E ST. MARYS GA  2200      75                N/A     2/10
FRYING PAN BUOY  2200   68 74  220/  6/  8 1014.3S   2/ 9   2/ 90/ 9
BUOY 41025       2200   68     250/ 10/ 14 1011.8F   3/10   2/ 40/10
CAPE LOOKOUT NC  2200   66     220/  6/  8 1012.1F
BUOY 41002       2116   73 77  360/ 10/ 12 1012.5    4/ 8   3/ 10/ 8
BUOY 41010       2200   76 82   10/ 16/ 19 1012.6S   4/ 4   2/ 20/11
BUOY 41012       NOT AVBL
ST AUGUSTINE FL  2200   71      30/ 12/ 13 1015.3S


$$



USA.gov is the U.S. government's official web portal to all federal, state and local government web resources and services.